Meteo pe oră la Dabie

Astăzi, 23 Aprilie, Vineri

Timp Temperatura Precipitaţii Vânt Presiune Umiditate
00:00 +2°C° 0 mm 2 m/s 745 mmHg 78%
01:00 +1°C° 0 mm 2 m/s 745 mmHg 81%
02:00 +1°C° 0 mm 2 m/s 746 mmHg 83%
03:00 +1°C° 0 mm 2 m/s 746 mmHg 85%
04:00 -1°C° 0 mm 2 m/s 746 mmHg 87%
05:00 +1°C° 0 mm 3 m/s 746 mmHg 83%
06:00 +1°C° 0 mm 4 m/s 746 mmHg 79%
07:00 +2°C° 0 mm 5 m/s 747 mmHg 74%
08:00 +5°C° 0.1 mm 5 m/s 747 mmHg 67%
09:00 +6°C° 0.1 mm 5 m/s 747 mmHg 59%
10:00 +7°C° 0.1 mm 6 m/s 747 mmHg 51%
11:00 +7°C° 0 mm 6 m/s 747 mmHg 50%
12:00 +8°C° 0 mm 6 m/s 747 mmHg 50%
13:00 +8°C° 0 mm 6 m/s 747 mmHg 50%
14:00 +8°C° 0.3 mm 6 m/s 747 mmHg 54%
15:00 +8°C° 0.3 mm 6 m/s 747 mmHg 58%
16:00 +7°C° 0.3 mm 6 m/s 747 mmHg 62%
17:00 +5°C° 0 mm 6 m/s 747 mmHg 67%
18:00 +3°C° 0 mm 5 m/s 747 mmHg 73%
19:00 +2°C° 0 mm 5 m/s 748 mmHg 78%
20:00 +2°C° 0 mm 5 m/s 748 mmHg 77%
21:00 +3°C° 0 mm 4 m/s 748 mmHg 77%
22:00 +1°C° 0 mm 4 m/s 749 mmHg 77%
23:00 +1°C° 0 mm 4 m/s 749 mmHg 78%

Mâine, 24 Aprilie, Sâmbătă

Timp Temperatura Precipitaţii Vânt Presiune Umiditate
00:00 +1°C° 0 mm 4 m/s 749 mmHg 79%
01:00 +1°C° 0 mm 4 m/s 749 mmHg 81%
02:00 +1°C° 0 mm 3 m/s 748 mmHg 83%
03:00 0°C° 0 mm 3 m/s 748 mmHg 85%
04:00 +1°C° 0 mm 2 m/s 748 mmHg 88%
05:00 +1°C° 0 mm 3 m/s 748 mmHg 82%
06:00 +3°C° 0 mm 3 m/s 748 mmHg 76%
07:00 +4°C° 0 mm 4 m/s 749 mmHg 70%
08:00 +5°C° 0.1 mm 4 m/s 748 mmHg 66%
09:00 +6°C° 0.1 mm 4 m/s 748 mmHg 61%
10:00 +7°C° 0.1 mm 4 m/s 748 mmHg 57%
11:00 +8°C° 0.1 mm 5 m/s 748 mmHg 57%
12:00 +8°C° 0.1 mm 5 m/s 748 mmHg 57%
13:00 +8°C° 0.1 mm 5 m/s 747 mmHg 58%
14:00 +8°C° 0.1 mm 5 m/s 747 mmHg 58%
15:00 +9°C° 0.1 mm 5 m/s 747 mmHg 57%
16:00 +10°C° 0.1 mm 4 m/s 747 mmHg 57%
17:00 +7°C° 0 mm 4 m/s 747 mmHg 63%
18:00 +7°C° 0 mm 3 m/s 747 mmHg 70%
19:00 +6°C° 0 mm 2 m/s 746 mmHg 76%
20:00 +6°C° 0 mm 2 m/s 747 mmHg 76%
21:00 +5°C° 0 mm 3 m/s 747 mmHg 77%
22:00 +4°C° 0 mm 3 m/s 747 mmHg 77%
23:00 +4°C° 0 mm 3 m/s 747 mmHg 80%

Poimâine, 25 Aprilie, Duminică

Timp Temperatura Precipitaţii Vânt Presiune Umiditate
00:00 +3°C° 0 mm 3 m/s 747 mmHg 84%
01:00 +3°C° 0 mm 2 m/s 746 mmHg 87%
02:00 +2°C° 0 mm 2 m/s 747 mmHg 89%
03:00 +2°C° 0 mm 2 m/s 747 mmHg 91%
04:00 +1°C° 0 mm 2 m/s 747 mmHg 92%
05:00 +2°C° 0.1 mm 2 m/s 747 mmHg 86%
06:00 +2°C° 0.1 mm 2 m/s 747 mmHg 79%
07:00 +3°C° 0.1 mm 2 m/s 748 mmHg 72%
08:00 +4°C° 0 mm 2 m/s 748 mmHg 63%
09:00 +5°C° 0 mm 3 m/s 748 mmHg 53%
10:00 +7°C° 0 mm 3 m/s 748 mmHg 44%
11:00 +7°C° 0 mm 3 m/s 747 mmHg 43%
12:00 +7°C° 0 mm 4 m/s 747 mmHg 41%
13:00 +7°C° 0 mm 4 m/s 747 mmHg 40%
14:00 +7°C° 0 mm 5 m/s 747 mmHg 41%
15:00 +7°C° 0 mm 5 m/s 746 mmHg 42%
16:00 +7°C° 0 mm 5 m/s 746 mmHg 44%
17:00 +5°C° 0 mm 4 m/s 746 mmHg 50%
18:00 +4°C° 0 mm 3 m/s 747 mmHg 57%
19:00 +3°C° 0 mm 2 m/s 747 mmHg 63%
20:00 +3°C° 0 mm 2 m/s 747 mmHg 66%
21:00 +2°C° 0 mm 2 m/s 747 mmHg 70%
22:00 +2°C° 0 mm 2 m/s 747 mmHg 73%
23:00 +1°C° 0 mm 2 m/s 747 mmHg 75%

26 Aprilie, Luni

Timp Temperatura Precipitaţii Vânt Presiune Umiditate
00:00 -1°C° 0 mm 3 m/s 747 mmHg 77%
01:00 -1°C° 0 mm 3 m/s 747 mmHg 79%
02:00 -2°C° 0 mm 3 m/s 747 mmHg 79%
03:00 -2°C° 0 mm 2 m/s 746 mmHg 79%
04:00 -2°C° 0 mm 2 m/s 746 mmHg 80%
05:00 -1°C° 0 mm 3 m/s 746 mmHg 73%
06:00 +1°C° 0 mm 3 m/s 746 mmHg 66%
07:00 +2°C° 0 mm 3 m/s 746 mmHg 59%
08:00 +4°C° 0 mm 3 m/s 746 mmHg 54%
09:00 +5°C° 0 mm 4 m/s 746 mmHg 49%
10:00 +6°C° 0 mm 4 m/s 746 mmHg 43%
11:00 +6°C° 0 mm 4 m/s 745 mmHg 44%
12:00 +7°C° 0 mm 4 m/s 745 mmHg 45%
13:00 +7°C° 0 mm 4 m/s 744 mmHg 45%
14:00 +7°C° 0 mm 4 m/s 744 mmHg 47%
15:00 +7°C° 0 mm 4 m/s 744 mmHg 49%
16:00 +7°C° 0 mm 4 m/s 743 mmHg 51%
17:00 +7°C° 0 mm 3 m/s 743 mmHg 57%
18:00 +5°C° 0 mm 2 m/s 743 mmHg 62%
19:00 +5°C° 0 mm 1 m/s 743 mmHg 68%
20:00 +5°C° 0 mm 1 m/s 744 mmHg 70%
21:00 +4°C° 0 mm 1 m/s 744 mmHg 72%
22:00 +3°C° 0 mm 1 m/s 744 mmHg 74%
23:00 +3°C° 0 mm 1 m/s 744 mmHg 77%

27 Aprilie, Marţi

Timp Temperatura Precipitaţii Vânt Presiune Umiditate
00:00 +2°C° 0 mm 1 m/s 744 mmHg 81%
01:00 +1°C° 0 mm 1 m/s 744 mmHg 84%
02:00 -1°C° 0 mm 2 m/s 743 mmHg 86%
03:00 -2°C° 0 mm 2 m/s 743 mmHg 87%
04:00 -2°C° 0 mm 2 m/s 743 mmHg 88%
05:00 +2°C° 0 mm 1 m/s 743 mmHg 81%
06:00 +4°C° 0 mm 1 m/s 743 mmHg 74%
07:00 +5°C° 0 mm 1 m/s 743 mmHg 67%
08:00 +7°C° 0 mm 1 m/s 743 mmHg 59%
09:00 +8°C° 0 mm 2 m/s 743 mmHg 52%
10:00 +9°C° 0 mm 2 m/s 743 mmHg 44%
11:00 +10°C° 0 mm 3 m/s 742 mmHg 42%
12:00 +11°C° 0 mm 3 m/s 741 mmHg 41%
13:00 +12°C° 0 mm 3 m/s 741 mmHg 39%
14:00 +12°C° 0 mm 3 m/s 740 mmHg 42%
15:00 +12°C° 0 mm 3 m/s 740 mmHg 45%
16:00 +12°C° 0 mm 4 m/s 739 mmHg 48%
17:00 +10°C° 0 mm 4 m/s 739 mmHg 54%
18:00 +8°C° 0 mm 4 m/s 739 mmHg 60%
19:00 +6°C° 0 mm 4 m/s 738 mmHg 67%
20:00 +6°C° 0 mm 4 m/s 738 mmHg 67%
21:00 +6°C° 0 mm 4 m/s 738 mmHg 67%
22:00 +6°C° 0 mm 4 m/s 737 mmHg 68%
23:00 +5°C° 0.2 mm 3 m/s 737 mmHg 73%

28 Aprilie, Miercuri

Timp Temperatura Precipitaţii Vânt Presiune Umiditate
00:00 +5°C° 0.2 mm 3 m/s 736 mmHg 78%
01:00 +6°C° 0.2 mm 2 m/s 736 mmHg 82%
02:00 +6°C° 0.5 mm 2 m/s 736 mmHg 86%
03:00 +6°C° 0.5 mm 2 m/s 735 mmHg 89%
04:00 +5°C° 0.5 mm 2 m/s 735 mmHg 92%
05:00 +6°C° 1 mm 2 m/s 734 mmHg 93%
06:00 +5°C° 1 mm 3 m/s 734 mmHg 94%
07:00 +5°C° 1 mm 3 m/s 734 mmHg 95%
08:00 +7°C° 0.4 mm 3 m/s 734 mmHg 94%
09:00 +8°C° 0.4 mm 3 m/s 734 mmHg 92%
10:00 +8°C° 0.4 mm 3 m/s 734 mmHg 91%
11:00 +9°C° 0 mm 3 m/s 733 mmHg 89%
12:00 +10°C° 0 mm 3 m/s 733 mmHg 87%
13:00 +11°C° 0 mm 3 m/s 733 mmHg 85%
14:00 +10°C° 0.3 mm 3 m/s 734 mmHg 88%
15:00 +9°C° 0.3 mm 3 m/s 734 mmHg 92%
16:00 +9°C° 0.3 mm 2 m/s 734 mmHg 95%
17:00 +8°C° 0.3 mm 2 m/s 734 mmHg 95%
18:00 +8°C° 0.3 mm 2 m/s 735 mmHg 94%
19:00 +8°C° 0.3 mm 2 m/s 735 mmHg 94%
20:00 +8°C° 0 mm 3 m/s 735 mmHg 94%
21:00 +7°C° 0 mm 3 m/s 736 mmHg 93%
22:00 +7°C° 0 mm 3 m/s 736 mmHg 93%
23:00 +5°C° 0 mm 4 m/s 737 mmHg 92%
Arată mai mult

Formular de consimțământ

Meteoprog și furnizorii noștri de servicii pot stoca și accesa date personale, precum cookies, identificatori de dispozitiv sau alte tehnologii similare pe dispozitivul dumneavoastră și procesa astfel de date pentru a personaliza conținutul și reclamele, dar și pentru a oferi caracteristici de social media și pentru a analiza traficul.

  • Stocarea și/sau accesarea informațiilor pe dispozitivul dumneavoastră

    Cookies, identificatori de dispozitiv sau alte informații pot fi stocate sau accesate pe dispozitiv în scopurile indicate mai sus.

  • Reclame și conținut personalizat, evaluarea reclamelor și a conținutului, informații despre audiențe și dezvoltarea produselor

    Reclamele și conținutul pot fi personalizate pe baza unui profil. Pot fi adăugate date suplimentare pentru a personaliza mai bine reclamele și conținutul. Performanța reclamelor și conținutului poate fi măsurată. Pot fi obținute informații despre utilizatorii care au văzut reclamele și conținutul. Aceste date pot fi utilizate pentru a dezvolta sau îmbunătăți experiența utilizatorilor, sistemele și software-ul.

Dând clic pe ‘Sunt de acord’, permiteți utilizarea cookie-urilor menționate, a identificatorilor de dispozitiv, balizelor web sau altor tehnologii similare. Setările pot fi modificate din browser-ul dispozitivului dumneavoastră.

În anumite scopuri, interesele legitime pot prima asupra consimțământului. Puteți citi mai multe informații în acest sens în Politica privind Confidențialitatea Datelor și Cookie.